| time (UTC) | temp F | wind direction | speed MPH | gust MPH | rain 1hr in | rain 24hr in | rain mn in | humidity % | barometer mb |
| 20260505091424 | 81 | 0 | 0.0 | 2.0 | 0.00 | 0.00 | 0.00 | 34 | 945.0 |
| 20260505090928 | 80 | 22 | 2.0 | 2.0 | 0.00 | 0.00 | 0.00 | 35 | 945.0 |
| 20260505090424 | 80 | 0 | 0.0 | 2.0 | 0.00 | 0.00 | 0.00 | 35 | 945.0 |
| 20260505085930 | 80 | 0 | 0.0 | 2.0 | 0.00 | 0.00 | 0.00 | 36 | 945.0 |
| 20260505085423 | 79 | 0 | 2.0 | 2.0 | 0.00 | 0.00 | 0.00 | 36 | 945.0 |
| 20260505084926 | 79 | 0 | 0.0 | 2.0 | 0.00 | 0.00 | 0.00 | 36 | 945.0 |
| 20260505084437 | 79 | 0 | 0.0 | 2.0 | 0.00 | 0.00 | 0.00 | 36 | 945.0 |
| 20260505083935 | 78 | 0 | 0.0 | 0.0 | 0.00 | 0.00 | 0.00 | 37 | 945.0 |
| 20260505083423 | 78 | 22 | 0.0 | 2.0 | 0.00 | 0.00 | 0.00 | 37 | 946.0 |
| 20260505082923 | 78 | 0 | 0.0 | 2.0 | 0.00 | 0.00 | 0.00 | 37 | 946.0 |
| 20260505082012 | 77 | 0 | 2.0 | 2.0 | 0.00 | 0.00 | 0.00 | 38 | 946.0 |
| 20260505080923 | 76 | 0 | 0.0 | 0.0 | 0.00 | 0.00 | 0.00 | 39 | 946.0 |
| 20260505080423 | 76 | 0 | 0.0 | 0.0 | 0.00 | 0.00 | 0.00 | 39 | 946.0 |
| 20260505074923 | 75 | 0 | 0.0 | 3.0 | 0.00 | 0.00 | 0.00 | 40 | 946.0 |
| 20260505074423 | 74 | 0 | 0.0 | 3.0 | 0.00 | 0.00 | 0.00 | 41 | 946.0 |
| 20260505072925 | 73 | 0 | 0.0 | 0.0 | 0.00 | 0.00 | 0.00 | 43 | 946.0 |
| 20260505072426 | 73 | 0 | 0.0 | 0.0 | 0.00 | 0.00 | 0.00 | 44 | 946.0 |
| 20260505071923 | 72 | 0 | 0.0 | 0.0 | 0.00 | 0.00 | 0.00 | 45 | 946.0 |
| 20260505071427 | 72 | 22 | 0.0 | 0.0 | 0.00 | 0.00 | 0.00 | 45 | 946.0 |
| 20260505070928 | 72 | 22 | 0.0 | 0.0 | 0.00 | 0.00 | 0.00 | 45 | 946.0 |
| 20260505065432 | 71 | 68 | 0.0 | 2.0 | 0.00 | 0.00 | 0.00 | 47 | 946.0 |
| 20260505064423 | 70 | 22 | 0.0 | 0.0 | 0.00 | 0.00 | 0.00 | 48 | 946.0 |
| 20260505063924 | 69 | 22 | 0.0 | 0.0 | 0.00 | 0.00 | 0.00 | 49 | 946.0 |
| 20260505061926 | 66 | 22 | 0.0 | 0.0 | 0.00 | 0.00 | 0.00 | 53 | 946.0 |
| 20260505061423 | 65 | 22 | 0.0 | 0.0 | 0.00 | 0.00 | 0.00 | 54 | 946.0 |
| 20260505060924 | 64 | 22 | 0.0 | 0.0 | 0.00 | 0.00 | 0.00 | 54 | 946.0 |
| 20260505060452 | 63 | 22 | 0.0 | 0.0 | 0.00 | 0.00 | 0.00 | 55 | 946.0 |
| 20260505055924 | 63 | 22 | 0.0 | 2.0 | 0.00 | 0.00 | 0.00 | 56 | 946.0 |
| 20260505054934 | 61 | 22 | 0.0 | 2.0 | 0.00 | 0.00 | 0.00 | 57 | 946.0 |
| 20260505053924 | 60 | 22 | 0.0 | 0.0 | 0.00 | 0.00 | 0.00 | 60 | 946.0 |
| 20260505053423 | 59 | 22 | 0.0 | 0.0 | 0.00 | 0.00 | 0.00 | 60 | 946.0 |
| 20260505052944 | 59 | 22 | 0.0 | 0.0 | 0.00 | 0.00 | 0.00 | 60 | 946.0 |
| 20260505051948 | 58 | 22 | 0.0 | 1.0 | 0.00 | 0.00 | 0.00 | 60 | 946.0 |
| 20260505051424 | 58 | 22 | 0.0 | 1.0 | 0.00 | 0.00 | 0.00 | 60 | 946.0 |
| 20260505050922 | 57 | 22 | 0.0 | 1.0 | 0.00 | 0.00 | 0.00 | 61 | 946.0 |
| 20260505050427 | 56 | 22 | 0.0 | 0.0 | 0.00 | 0.00 | 0.00 | 62 | 946.0 |
| 20260505041423 | 55 | 22 | 0.0 | 0.0 | 0.00 | 0.00 | 0.00 | 62 | 946.0 |
| 20260505040428 | 54 | 22 | 0.0 | 0.0 | 0.00 | 0.00 | 0.00 | 63 | 946.0 |
| 20260505035928 | 54 | 22 | 0.0 | 0.0 | 0.00 | 0.00 | 0.00 | 63 | 946.0 |
| 20260505034933 | 52 | 22 | 0.0 | 0.0 | 0.00 | 0.00 | 0.00 | 64 | 945.0 |
| 20260505034426 | 52 | 22 | 0.0 | 0.0 | 0.00 | 0.00 | 0.00 | 64 | 945.0 |
| 20260505033937 | 52 | 22 | 0.0 | 0.0 | 0.00 | 0.00 | 0.00 | 64 | 945.0 |
| 20260505032927 | 51 | 22 | 0.0 | 0.0 | 0.00 | 0.00 | 0.00 | 65 | 945.0 |
| 20260505031424 | 50 | 22 | 0.0 | 0.0 | 0.00 | 0.00 | 0.00 | 66 | 945.0 |
| 20260505030424 | 50 | 22 | 0.0 | 0.0 | 0.00 | 0.00 | 0.00 | 67 | 945.0 |
| 20260505025432 | 50 | 22 | 0.0 | 0.0 | 0.00 | 0.00 | 0.00 | 67 | 945.0 |
| 20260505024924 | 50 | 22 | 0.0 | 0.0 | 0.00 | 0.00 | 0.00 | 67 | 945.0 |
| 20260505024422 | 49 | 22 | 0.0 | 1.0 | 0.00 | 0.00 | 0.00 | 67 | 945.0 |
| 20260505023926 | 49 | 22 | 0.0 | 2.0 | 0.00 | 0.00 | 0.00 | 67 | 945.0 |
| 20260505023435 | 49 | 22 | 0.0 | 2.0 | 0.00 | 0.00 | 0.00 | 67 | 945.0 |
| 20260505021948 | 49 | 22 | 0.0 | 2.0 | 0.00 | 0.00 | 0.00 | 67 | 945.0 |
| 20260505020424 | 49 | 22 | 0.0 | 0.0 | 0.00 | 0.00 | 0.00 | 67 | 945.0 |
| 20260505015923 | 48 | 22 | 0.0 | 0.0 | 0.00 | 0.00 | 0.00 | 67 | 945.0 |
| 20260505015423 | 48 | 22 | 0.0 | 0.0 | 0.00 | 0.00 | 0.00 | 67 | 945.0 |
| 20260505014925 | 48 | 22 | 0.0 | 0.0 | 0.00 | 0.00 | 0.00 | 67 | 945.0 |
| 20260505014424 | 48 | 22 | 0.0 | 0.0 | 0.00 | 0.00 | 0.00 | 67 | 945.0 |
| 20260505013923 | 48 | 22 | 0.0 | 0.0 | 0.00 | 0.00 | 0.00 | 67 | 946.0 |
| 20260505012935 | 48 | 22 | 0.0 | 0.0 | 0.00 | 0.00 | 0.00 | 66 | 945.0 |
| 20260505012422 | 48 | 22 | 0.0 | 0.0 | 0.00 | 0.00 | 0.00 | 66 | 945.0 |
| 20260505011923 | 49 | 22 | 0.0 | 0.0 | 0.00 | 0.00 | 0.00 | 66 | 945.0 |
| 20260505011443 | 49 | 22 | 0.0 | 0.0 | 0.00 | 0.00 | 0.00 | 65 | 945.0 |
| 20260505010423 | 49 | 22 | 0.0 | 0.0 | 0.00 | 0.00 | 0.00 | 65 | 945.0 |
| 20260505005923 | 50 | 22 | 0.0 | 0.0 | 0.00 | 0.00 | 0.00 | 65 | 945.0 |
| 20260505005422 | 50 | 22 | 0.0 | 0.0 | 0.00 | 0.00 | 0.00 | 65 | 945.0 |
| 20260505004930 | 50 | 22 | 0.0 | 0.0 | 0.00 | 0.00 | 0.00 | 65 | 945.0 |
| 20260505004423 | 50 | 22 | 0.0 | 0.0 | 0.00 | 0.00 | 0.00 | 65 | 945.0 |
| 20260505003423 | 50 | 22 | 0.0 | 0.0 | 0.00 | 0.00 | 0.00 | 64 | 945.0 |
| 20260505002431 | 50 | 22 | 0.0 | 0.0 | 0.00 | 0.00 | 0.00 | 64 | 945.0 |
| 20260505001924 | 50 | 22 | 0.0 | 0.0 | 0.00 | 0.00 | 0.00 | 64 | 945.0 |
| 20260505001426 | 50 | 22 | 0.0 | 0.0 | 0.00 | 0.00 | 0.00 | 63 | 945.0 |
| 20260505000940 | 50 | 22 | 0.0 | 0.0 | 0.00 | 0.00 | 0.00 | 63 | 945.0 |
| 20260505000422 | 51 | 22 | 0.0 | 0.0 | 0.00 | 0.00 | 0.00 | 63 | 945.0 |
| 20260504235429 | 51 | 22 | 0.0 | 0.0 | 0.00 | 0.00 | 0.00 | 62 | 945.0 |
| 20260504234923 | 51 | 22 | 0.0 | 0.0 | 0.00 | 0.00 | 0.00 | 62 | 945.0 |
| 20260504233426 | 51 | 22 | 0.0 | 0.0 | 0.00 | 0.00 | 0.00 | 62 | 945.0 |
| 20260504231923 | 52 | 22 | 0.0 | 0.0 | 0.00 | 0.00 | 0.00 | 60 | 946.0 |
| 20260504225922 | 52 | 22 | 0.0 | 0.0 | 0.00 | 0.00 | 0.00 | 59 | 945.0 |
| 20260504225423 | 52 | 22 | 0.0 | 0.0 | 0.00 | 0.00 | 0.00 | 59 | 945.0 |
| 20260504224924 | 53 | 22 | 0.0 | 0.0 | 0.00 | 0.00 | 0.00 | 58 | 945.0 |
| 20260504224423 | 53 | 22 | 0.0 | 0.0 | 0.00 | 0.00 | 0.00 | 58 | 945.0 |
| 20260504222427 | 54 | 22 | 0.0 | 0.0 | 0.00 | 0.00 | 0.00 | 57 | 945.0 |
| 20260504221936 | 54 | 22 | 0.0 | 1.0 | 0.00 | 0.00 | 0.00 | 57 | 945.0 |
| 20260504220921 | 54 | 22 | 0.0 | 1.0 | 0.00 | 0.00 | 0.00 | 55 | 946.0 |
| 20260504220423 | 55 | 22 | 0.0 | 0.0 | 0.00 | 0.00 | 0.00 | 54 | 945.0 |
| 20260504215943 | 55 | 22 | 0.0 | 0.0 | 0.00 | 0.00 | 0.00 | 54 | 945.0 |
| 20260504215423 | 55 | 22 | 0.0 | 0.0 | 0.00 | 0.00 | 0.00 | 54 | 945.0 |
| 20260504214923 | 55 | 22 | 0.0 | 0.0 | 0.00 | 0.00 | 0.00 | 54 | 945.0 |
| 20260504214423 | 55 | 22 | 0.0 | 0.0 | 0.00 | 0.00 | 0.00 | 53 | 945.0 |
| 20260504213924 | 56 | 22 | 0.0 | 0.0 | 0.00 | 0.00 | 0.00 | 53 | 945.0 |
| 20260504213431 | 56 | 22 | 0.0 | 0.0 | 0.00 | 0.00 | 0.00 | 52 | 945.0 |
| 20260504212925 | 56 | 22 | 0.0 | 0.0 | 0.00 | 0.00 | 0.00 | 52 | 946.0 |
| 20260504211922 | 56 | 22 | 0.0 | 0.0 | 0.00 | 0.00 | 0.00 | 51 | 946.0 |
| 20260504210922 | 57 | 22 | 0.0 | 0.0 | 0.00 | 0.00 | 0.00 | 50 | 946.0 |
| 20260504205422 | 58 | 22 | 0.0 | 0.0 | 0.00 | 0.00 | 0.00 | 49 | 945.0 |
| 20260504204923 | 58 | 22 | 0.0 | 0.0 | 0.00 | 0.00 | 0.00 | 48 | 945.0 |
| 20260504203923 | 58 | 22 | 0.0 | 0.0 | 0.00 | 0.00 | 0.00 | 47 | 945.0 |
| 20260504203421 | 59 | 22 | 0.0 | 0.0 | 0.00 | 0.00 | 0.00 | 47 | 946.0 |
| 20260504202930 | 59 | 22 | 0.0 | 0.0 | 0.00 | 0.00 | 0.00 | 47 | 946.0 |
| 20260504202424 | 60 | 22 | 0.0 | 0.0 | 0.00 | 0.00 | 0.00 | 46 | 945.0 |
| 20260504201424 | 60 | 0 | 0.0 | 0.0 | 0.00 | 0.00 | 0.00 | 45 | 945.0 |
| 20260504200937 | 60 | 22 | 0.0 | 0.0 | 0.00 | 0.00 | 0.00 | 45 | 945.0 |
| 20260504195924 | 61 | 22 | 0.0 | 2.0 | 0.00 | 0.00 | 0.00 | 45 | 945.0 |
| 20260504195425 | 61 | 22 | 0.0 | 2.0 | 0.00 | 0.00 | 0.00 | 44 | 945.0 |
| 20260504194423 | 61 | 22 | 2.0 | 2.0 | 0.00 | 0.00 | 0.00 | 44 | 945.0 |
| 20260504193923 | 62 | 22 | 0.0 | 2.0 | 0.00 | 0.00 | 0.00 | 44 | 945.0 |
| 20260504193424 | 62 | 22 | 0.0 | 2.0 | 0.00 | 0.00 | 0.00 | 44 | 945.0 |
| 20260504192922 | 62 | 22 | 0.0 | 2.0 | 0.00 | 0.00 | 0.00 | 43 | 945.0 |
| 20260504191425 | 62 | 0 | 0.0 | 0.0 | 0.00 | 0.00 | 0.00 | 42 | 945.0 |
| 20260504190443 | 63 | 22 | 0.0 | 0.0 | 0.00 | 0.00 | 0.00 | 41 | 945.0 |
| 20260504185925 | 63 | 22 | 0.0 | 0.0 | 0.00 | 0.00 | 0.00 | 40 | 945.0 |
| 20260504185424 | 64 | 22 | 0.0 | 0.0 | 0.00 | 0.00 | 0.00 | 39 | 945.0 |
| 20260504184922 | 64 | 22 | 0.0 | 0.0 | 0.00 | 0.00 | 0.00 | 39 | 945.0 |
| 20260504183924 | 65 | 22 | 0.0 | 0.0 | 0.00 | 0.00 | 0.00 | 38 | 945.0 |
| 20260504182921 | 65 | 22 | 0.0 | 0.0 | 0.00 | 0.00 | 0.00 | 38 | 945.0 |
| 20260504182422 | 66 | 22 | 0.0 | 0.0 | 0.00 | 0.00 | 0.00 | 38 | 945.0 |
| 20260504181931 | 66 | 22 | 0.0 | 0.0 | 0.00 | 0.00 | 0.00 | 37 | 945.0 |
| 20260504181424 | 66 | 22 | 0.0 | 0.0 | 0.00 | 0.00 | 0.00 | 37 | 945.0 |
| 20260504180927 | 66 | 22 | 0.0 | 0.0 | 0.00 | 0.00 | 0.00 | 36 | 945.0 |
| 20260504180442 | 67 | 22 | 0.0 | 0.0 | 0.00 | 0.00 | 0.00 | 36 | 945.0 |
| 20260504175422 | 67 | 22 | 0.0 | 0.0 | 0.00 | 0.00 | 0.00 | 35 | 945.0 |
| 20260504174922 | 68 | 22 | 0.0 | 0.0 | 0.00 | 0.00 | 0.00 | 35 | 945.0 |
| 20260504174422 | 68 | 22 | 0.0 | 0.0 | 0.00 | 0.00 | 0.00 | 34 | 944.0 |
| 20260504173426 | 69 | 22 | 0.0 | 0.0 | 0.00 | 0.00 | 0.00 | 34 | 944.0 |
| 20260504172923 | 69 | 22 | 0.0 | 0.0 | 0.00 | 0.00 | 0.00 | 34 | 944.0 |
| 20260504172423 | 70 | 22 | 0.0 | 0.0 | 0.00 | 0.00 | 0.00 | 33 | 944.0 |
| 20260504171941 | 70 | 22 | 0.0 | 0.0 | 0.00 | 0.00 | 0.00 | 33 | 944.0 |
| 20260504171439 | 71 | 22 | 0.0 | 0.0 | 0.00 | 0.00 | 0.00 | 33 | 944.0 |
| 20260504170927 | 71 | 22 | 0.0 | 2.0 | 0.00 | 0.00 | 0.00 | 33 | 944.0 |
| 20260504150941 | 77 | 0 | 3.0 | 4.0 | 0.00 | 0.00 | 0.00 | 28 | 945.0 |
| 20260504150423 | 77 | 22 | 4.0 | 6.0 | 0.00 | 0.00 | 0.00 | 28 | 945.0 |
| 20260504140922 | 80 | 45 | 4.0 | 4.0 | 0.00 | 0.00 | 0.00 | 27 | 945.0 |
| 20260504140421 | 80 | 45 | 0.0 | 4.0 | 0.00 | 0.00 | 0.00 | 26 | 945.0 |
| 20260504130423 | 82 | 0 | 0.0 | 3.0 | 0.00 | 0.00 | 0.00 | 27 | 945.0 |
| 20260504110421 | 82 | 22 | 4.0 | 10.0 | 0.00 | 0.00 | 0.00 | 27 | 946.0 |
| 20260504100422 | 80 | 45 | 6.0 | 10.0 | 0.00 | 0.00 | 0.00 | 29 | 947.0 |